Regional Weather Roundup
Issued by NWS

Home | Current Version | Previous Version | Text Only | Print | Product List | Glossary Off
Versions: 1 2 3 4 5 6 7 8 9 10 11 12 13 14 15 16 17 18 19 20 21 22 23 24 25 26 27 28 29 30 31 32 33 34 35 36 37 38 39 40 41 42 43 44 45 46 47 48 49 50

000
ASUS45 KCYS 071510
RWRWY

WYOMING REGIONAL WEATHER ROUNDUP
NATIONAL WEATHER SERVICE CHEYENNE WY
900 AM MDT TUE JUL 07 2015

NOTE:  "FAIR" INDICATES FEW OR NO CLOUDS BELOW 12,000 FEET
WITH NO SIGNIFICANT WEATHER AND/OR OBSTRUCTIONS TO VISIBILITY.

WYZ001-071600-
YELLOWSTONE NATIONAL PARK

CITY           SKY/WX    TMP DP  RH WIND       PRES   REMARKS
LK YELLOWSTONE   N/A     56  47  71 CALM      30.32S
W YELLOWSTONE  NOT AVBL

$$
WYZ002>013-054>058-071-098>099-071600-
NORTHERN WYOMING

CITY           SKY/WX    TMP DP  RH WIND       PRES   REMARKS
JACKSON        SUNNY     57  52  82 CALM      30.25S
CODY           FAIR      64  54  68 N3        30.15S
GREYBULL       FAIR      64  50  60 CALM      30.09F
WORLAND        PTSUNNY   62  56  80 CALM      30.10S HAZE
SHERIDAN       FAIR      62  54  74 CALM      30.10F
BUFFALO        FAIR      63  53  70 CALM      30.14S
GILLETTE       FAIR      65  55  70 S16G23    30.12F HAZE
HULETT         FAIR      68  54  60 S13       30.14F
NEWCASTLE      FAIR      63  52  67 SE13      30.17S HAZE

$$
WYZ014>020-022>026-101>103-071600-
CENTRAL WYOMING

CITY           SKY/WX    TMP DP  RH WIND       PRES   REMARKS
BIG PINEY      FAIR      59  51  75 W3        30.26S
PINEDALE       CLOUDY    55  50  82 W3        30.27S
DUBOIS         PTSUNNY   55  46  71 NW7       30.25S
LANDER         CLOUDY    61  55  81 S3        30.17S
RIVERTON       FAIR      63  55  75 CALM      30.17S
CASPER         FAIR      64  53  67 NE5       30.17S HAZE
DOUGLAS        FAIR      63  55  75 SE14      30.17S HAZE

$$
WYZ021-027>030-104>119-071600-
SOUTHERN WYOMING

CITY           SKY/WX    TMP DP  RH WIND       PRES   REMARKS
EVANSTON       FAIR      59  51  75 SE6       30.26S
KEMMERER       FAIR      55  50  82 CALM      30.28S
FORT BRIDGER   MOSUNNY   59  55  88 CALM      30.29R
ROCK SPRINGS   PTSUNNY   58  53  84 W3        30.24S
DIXON          FAIR      61  53  74 E3        30.25S
RAWLINS        CLOUDY    58  53  84 CALM      30.24R
SARATOGA       CLOUDY    57  52  82 CALM      30.26S
LARAMIE        CLOUDY    53  51  93 SE18      30.25F
CHEYENNE       CLOUDY    54  51  90 S13       30.24S FOG
TORRINGTON     CLOUDY    63  53  70 SE13      30.18S HAZE
PINE BLUFFS    CLOUDY    61  50  67 S13G21    30.24S

$$



USA.gov is the U.S. government's official web portal to all federal, state and local government web resources and services.